Change the Weather History Date:

Tuesday, September 3, 2013

  Actual Average Record
Temperature  
Mean Temperature 58 °F -  
Max Temperature 66 °F 63 °F 72 °F (1963)
Min Temperature 51 °F 40 °F 27 °F (1980)
Degree Days  
Heating Degree Days 6    
Growing Degree Days 8 (Base 50)    
Moisture  
Dew Point 44 °F    
Average Humidity 67    
Maximum Humidity 82    
Minimum Humidity 46    
Precipitation  
Precipitation 0.10 in - - ()
Sea Level Pressure  
Sea Level Pressure 29.39 in    
Wind  
Wind Speed 7 mph (East)    
Max Wind Speed 14 mph    
Max Gust Speed 24 mph    
Averages and records for this station are not official NWS values.
T = Trace of Precipitation, MM = Missing Value Source: NWS Daily Summary

Daily Weather History Graph

Daily Weather History Graph

Search for Another Location

Airport or City:

Trip Planner

Search our weather history database for the weather conditions in past years. The results will help you decide how hot, cold, wet, or windy it might be!

Date:

Astronomy

Sep. 03, 2013 Rise Set
Actual Time 6:55 AM AKDT 8:57 PM AKDT
Civil Twilight 6:07 AM AKDT 9:44 PM AKDT
Nautical Twilight 5:06 AM AKDT 10:45 PM AKDT
Astronomical Twilight 3:43 AM AKDT 12:05 AM AKDT
Moon 5:06 AM AKDT (9/3) 7:52 PM AKDT (9/3)
Length of Visible Light 15h 36m
Length of Day
14h 02m
Waning Crescent, 3% of the Moon is Illuminated
Sep 3
Waning Crescent
Sep 5
New
Sep 12
First Quarter
Sep 19
Full
Sep 26
Last Quarter

Hourly Weather History & Observations

Time (AKDT) Temp. Dew Point Humidity Pressure Visibility Wind Dir Wind Speed Gust Speed Precip Events Conditions
12:16 AM 55.4 °F 44.6 °F 67% 29.53 in - East 9.2 mph 16.1 mph N/A   Overcast
12:36 AM 57.2 °F 42.8 °F 59% 29.53 in - East 10.4 mph 18.4 mph N/A   Overcast
12:56 AM 57.2 °F 42.8 °F 59% 29.52 in - East 9.2 mph 16.1 mph N/A   Overcast
1:16 AM 57.2 °F 42.8 °F 59% 29.51 in - East 9.2 mph - N/A   Overcast
1:36 AM 57.2 °F 42.8 °F 59% 29.49 in - East 10.4 mph 16.1 mph N/A   Overcast
1:56 AM 57.2 °F 42.8 °F 59% 29.49 in - East 9.2 mph - N/A   Overcast
2:16 AM 57.2 °F 42.8 °F 59% 29.51 in - East 9.2 mph 18.4 mph N/A   Overcast
2:36 AM 57.2 °F 42.8 °F 59% 29.49 in - ESE 5.8 mph - N/A   Overcast
2:56 AM 55.4 °F 42.8 °F 63% 29.49 in - East 4.6 mph - N/A   Overcast
3:16 AM 55.4 °F 42.8 °F 63% 29.49 in - Calm Calm - N/A   Overcast
3:36 AM 53.6 °F 44.6 °F 72% 29.48 in - Calm Calm - N/A   Overcast
3:56 AM 53.6 °F 42.8 °F 67% 29.47 in - NE 3.5 mph - N/A   Overcast
4:16 AM 51.8 °F 44.6 °F 76% 29.45 in - NNE 5.8 mph - N/A   Overcast
4:36 AM 51.8 °F 44.6 °F 76% 29.46 in - Calm Calm - N/A   Overcast
4:56 AM 51.8 °F 44.6 °F 76% 29.45 in - NE 5.8 mph - 0.01 in   Overcast
5:16 AM 51.8 °F 44.6 °F 76% 29.44 in - NE 4.6 mph - N/A   Overcast
5:36 AM 53.6 °F 44.6 °F 72% 29.42 in - ENE 6.9 mph - 0.01 in   Overcast
5:56 AM 53.6 °F 42.8 °F 67% 29.42 in - East 10.4 mph 19.6 mph 0.01 in   Overcast
6:16 AM 55.4 °F 42.8 °F 63% 29.42 in - ESE 13.8 mph 20.7 mph N/A   Overcast
6:36 AM 53.6 °F 42.8 °F 67% 29.42 in - East 8.1 mph 17.3 mph N/A   Overcast
6:56 AM 53.6 °F 42.8 °F 67% 29.41 in - East 10.4 mph 17.3 mph 0.01 in   Overcast
7:16 AM 53.6 °F 42.8 °F 67% 29.39 in - ENE 9.2 mph - N/A   Overcast
7:36 AM 53.6 °F 42.8 °F 67% 29.38 in - East 8.1 mph 17.3 mph N/A   Overcast
7:56 AM - - N/A% 29.37 in - East 10.4 mph - N/A   Overcast
8:16 AM 53.6 °F 42.8 °F 67% 29.37 in - East 11.5 mph 17.3 mph N/A   Overcast
8:36 AM 53.6 °F 42.8 °F 67% 29.36 in - East 8.1 mph - N/A   Overcast
8:56 AM 55.4 °F 42.8 °F 63% 29.35 in - East 9.2 mph 18.4 mph N/A   Overcast
9:16 AM - - N/A% 29.33 in - East 8.1 mph 18.4 mph N/A   Overcast
9:36 AM 57.2 °F 42.8 °F 59% 29.32 in - East 8.1 mph - N/A   Mostly Cloudy
9:56 AM 57.2 °F 44.6 °F 63% 29.31 in - East 10.4 mph - N/A   Mostly Cloudy
10:16 AM 57.2 °F 42.8 °F 59% 29.31 in - ENE 11.5 mph 18.4 mph N/A   Overcast
10:36 AM 59.0 °F 44.6 °F 59% 29.30 in - ENE 9.2 mph - N/A   Overcast
10:56 AM 60.8 °F 44.6 °F 55% 29.29 in - ENE 10.4 mph 18.4 mph N/A   Overcast
11:16 AM 62.6 °F 44.6 °F 52% 29.28 in - ENE 11.5 mph 16.1 mph N/A   Overcast
11:36 AM 64.4 °F 44.6 °F 49% 29.27 in - East 9.2 mph 19.6 mph N/A   Mostly Cloudy
11:56 AM 66.2 °F 44.6 °F 46% 29.27 in - East 12.7 mph 19.6 mph N/A   Mostly Cloudy
12:16 PM 66.2 °F 44.6 °F 46% 29.27 in - ESE 10.4 mph 23.0 mph N/A   Partly Cloudy
12:36 PM 66.2 °F 46.4 °F 49% 29.27 in - ESE 9.2 mph - N/A   Clear
12:56 PM 66.2 °F 44.6 °F 46% 29.28 in - SE 10.4 mph 18.4 mph N/A   Clear
1:16 PM 66.2 °F 44.6 °F 46% 29.28 in - SW 6.9 mph - N/A   Partly Cloudy
1:36 PM 62.6 °F 51.8 °F 68% 29.29 in - West 8.1 mph - N/A   Mostly Cloudy
1:56 PM 60.8 °F 51.8 °F 72% 29.29 in - West 6.9 mph - N/A   Overcast
2:16 PM 60.8 °F 51.8 °F 72% 29.30 in - West 4.6 mph - N/A   Overcast
2:36 PM 59.0 °F 50.0 °F 72% 29.31 in - West 4.6 mph - N/A   Overcast
2:56 PM 57.2 °F 50.0 °F 77% 29.33 in - West 12.7 mph 18.4 mph N/A   Overcast
3:16 PM 55.4 °F 46.4 °F 72% 29.36 in - WSW 6.9 mph 24.2 mph N/A   Overcast
3:36 PM 53.6 °F 46.4 °F 77% 29.38 in - WSW 9.2 mph - 0.01 in   Mostly Cloudy
3:56 PM 53.6 °F 46.4 °F 77% 29.38 in - West 5.8 mph - 0.01 in   Overcast
4:16 PM 53.6 °F 44.6 °F 72% 29.39 in - Calm Calm - N/A   Overcast
4:36 PM 53.6 °F 44.6 °F 72% 29.39 in - WNW 4.6 mph - N/A   Overcast
4:56 PM 53.6 °F 44.6 °F 72% 29.39 in - WNW 3.5 mph - N/A   Overcast
5:16 PM 53.6 °F 44.6 °F 72% 29.40 in - Calm Calm - N/A   Overcast
5:36 PM 51.8 °F 44.6 °F 76% 29.40 in - NE 4.6 mph - 0.01 in   Overcast
5:56 PM 51.8 °F 46.4 °F 82% 29.40 in - NE 3.5 mph - 0.01 in   Overcast
6:16 PM 51.8 °F 46.4 °F 82% 29.40 in - NE 3.5 mph - 0.04 in   Overcast
6:36 PM 51.8 °F 46.4 °F 82% 29.40 in - ENE 5.8 mph - 0.04 in   Overcast
6:56 PM 51.8 °F 46.4 °F 82% 29.40 in - ENE 5.8 mph - 0.04 in   Overcast
7:16 PM 51.8 °F 46.4 °F 82% 29.40 in - East 3.5 mph - N/A   Overcast
7:36 PM 51.8 °F 46.4 °F 82% 29.39 in - Calm Calm - 0.01 in   Overcast
7:56 PM 51.8 °F 46.4 °F 82% 29.39 in - East 3.5 mph - 0.01 in   Overcast
8:16 PM 53.6 °F 46.4 °F 77% 29.40 in - East 4.6 mph - N/A   Overcast
8:36 PM 53.6 °F 46.4 °F 77% 29.41 in - East 3.5 mph - N/A   Overcast
8:56 PM 53.6 °F 44.6 °F 72% 29.41 in - NE 5.8 mph - N/A   Overcast
9:16 PM 53.6 °F 44.6 °F 72% 29.41 in - ENE 6.9 mph - N/A   Overcast
9:36 PM 53.6 °F 42.8 °F 67% 29.41 in - ENE 6.9 mph - N/A   Overcast
9:56 PM 53.6 °F 42.8 °F 67% 29.41 in - Calm Calm - N/A   Overcast
10:16 PM 51.8 °F 42.8 °F 71% 29.41 in - ENE 5.8 mph - N/A   Overcast
10:36 PM 53.6 °F 41.0 °F 62% 29.42 in - East 5.8 mph - N/A   Overcast
10:56 PM 53.6 °F 41.0 °F 62% 29.42 in - East 5.8 mph - N/A   Overcast
11:16 PM 55.4 °F 41.0 °F 58% 29.41 in - East 5.8 mph - N/A   Overcast
11:36 PM 55.4 °F 39.2 °F 54% 29.42 in - East 6.9 mph - N/A   Overcast
11:56 PM 55.4 °F 39.2 °F 54% 29.42 in - East 5.8 mph - N/A   Overcast